When you browse on this site, cookies collect data to enhance your experience and personalize the content and advertising you see.
Visit our Privacy Policy to learn more. By continuing to use the site, you agree to this use of cookies and data.
EN

Hourly Weather Gogovo

Today, 26 September, Saturday

Time Temperature Precipitation Wind Pressure Humidity
00:00 +15°C° 0 mm 5 mps 741 mmHg 73%
01:00 +15°C° 0 mm 5 mps 741 mmHg 73%
02:00 +15°C° 0 mm 4 mps 741 mmHg 72%
03:00 +14°C° 0 mm 4 mps 741 mmHg 73%
04:00 +14°C° 0 mm 4 mps 741 mmHg 74%
05:00 +14°C° 0 mm 5 mps 741 mmHg 76%
06:00 +14°C° 0 mm 5 mps 741 mmHg 74%
07:00 +14°C° 0 mm 5 mps 741 mmHg 72%
08:00 +15°C° 0 mm 5 mps 741 mmHg 70%
09:00 +16°C° 0 mm 6 mps 741 mmHg 67%
10:00 +19°C° 0 mm 6 mps 742 mmHg 63%
11:00 +20°C° 0 mm 6 mps 742 mmHg 60%
12:00 +21°C° 0 mm 6 mps 742 mmHg 59%
13:00 +22°C° 0 mm 6 mps 742 mmHg 57%
14:00 +24°C° 0 mm 6 mps 741 mmHg 56%
15:00 +23°C° 0 mm 6 mps 741 mmHg 60%
16:00 +22°C° 0 mm 5 mps 742 mmHg 63%
17:00 +21°C° 0 mm 5 mps 742 mmHg 67%
18:00 +20°C° 0 mm 5 mps 742 mmHg 66%
19:00 +19°C° 0 mm 6 mps 742 mmHg 66%
20:00 +17°C° 0 mm 6 mps 743 mmHg 65%
21:00 +17°C° 0 mm 6 mps 743 mmHg 66%
22:00 +16°C° 0 mm 5 mps 743 mmHg 67%
23:00 +16°C° 0 mm 5 mps 743 mmHg 68%

Tomorrow, 27 September, Sunday

Time Temperature Precipitation Wind Pressure Humidity
00:00 +16°C° 0 mm 5 mps 743 mmHg 67%
01:00 +15°C° 0 mm 5 mps 743 mmHg 67%
02:00 +15°C° 0 mm 5 mps 743 mmHg 67%
03:00 +15°C° 0 mm 5 mps 743 mmHg 66%
04:00 +14°C° 0 mm 5 mps 743 mmHg 64%
05:00 +14°C° 0 mm 5 mps 743 mmHg 63%
06:00 +14°C° 0 mm 6 mps 743 mmHg 62%
07:00 +14°C° 0 mm 6 mps 743 mmHg 60%
08:00 +14°C° 0 mm 6 mps 744 mmHg 59%
09:00 +15°C° 0 mm 6 mps 744 mmHg 57%
10:00 +17°C° 0 mm 7 mps 743 mmHg 55%
11:00 +18°C° 0 mm 7 mps 743 mmHg 53%
12:00 +20°C° 0 mm 7 mps 743 mmHg 54%
13:00 +20°C° 0 mm 8 mps 743 mmHg 54%
14:00 +21°C° 0 mm 8 mps 743 mmHg 54%
15:00 +20°C° 0.1 mm 7 mps 743 mmHg 59%
16:00 +18°C° 0.1 mm 7 mps 743 mmHg 63%
17:00 +17°C° 0.1 mm 6 mps 743 mmHg 68%
18:00 +16°C° 0.3 mm 6 mps 743 mmHg 74%
19:00 +15°C° 0.3 mm 6 mps 743 mmHg 80%
20:00 +14°C° 0.3 mm 6 mps 743 mmHg 87%
21:00 +14°C° 0.1 mm 6 mps 744 mmHg 87%
22:00 +13°C° 0.1 mm 6 mps 744 mmHg 88%
23:00 +13°C° 0.1 mm 5 mps 744 mmHg 88%

Day after tomorrow, 28 September, Monday

Time Temperature Precipitation Wind Pressure Humidity
00:00 +13°C° 0 mm 5 mps 745 mmHg 89%
01:00 +13°C° 0 mm 4 mps 745 mmHg 90%
02:00 +13°C° 0 mm 3 mps 745 mmHg 90%
03:00 +12°C° 0 mm 3 mps 745 mmHg 90%
04:00 +11°C° 0 mm 3 mps 746 mmHg 89%
05:00 +11°C° 0 mm 3 mps 746 mmHg 88%
06:00 +10°C° 0 mm 3 mps 746 mmHg 88%
07:00 +10°C° 0 mm 4 mps 747 mmHg 87%
08:00 +10°C° 0 mm 4 mps 747 mmHg 87%
09:00 +12°C° 0 mm 4 mps 748 mmHg 80%
10:00 +13°C° 0 mm 4 mps 748 mmHg 74%
11:00 +14°C° 0 mm 4 mps 749 mmHg 67%
12:00 +15°C° 0 mm 4 mps 749 mmHg 65%
13:00 +15°C° 0 mm 4 mps 749 mmHg 62%
14:00 +17°C° 0 mm 4 mps 749 mmHg 60%
15:00 +15°C° 0 mm 4 mps 749 mmHg 62%
16:00 +16°C° 0 mm 3 mps 749 mmHg 65%
17:00 +16°C° 0 mm 2 mps 749 mmHg 67%
18:00 +14°C° 0 mm 2 mps 749 mmHg 71%
19:00 +13°C° 0 mm 2 mps 749 mmHg 75%
20:00 +11°C° 0 mm 3 mps 750 mmHg 79%
21:00 +12°C° 0 mm 2 mps 750 mmHg 80%
22:00 +10°C° 0 mm 2 mps 750 mmHg 81%
23:00 +10°C° 0 mm 2 mps 750 mmHg 82%

29 September, Tuesday

Time Temperature Precipitation Wind Pressure Humidity
00:00 +10°C° 0 mm 2 mps 750 mmHg 82%
01:00 +10°C° 0 mm 2 mps 750 mmHg 83%
02:00 +10°C° 0 mm 3 mps 750 mmHg 83%
03:00 +10°C° 0 mm 3 mps 750 mmHg 84%
04:00 +10°C° 0 mm 3 mps 749 mmHg 85%
05:00 +9°C° 0 mm 3 mps 749 mmHg 86%
06:00 +10°C° 0 mm 3 mps 749 mmHg 82%
07:00 +11°C° 0 mm 3 mps 749 mmHg 78%
08:00 +12°C° 0 mm 3 mps 749 mmHg 73%
09:00 +12°C° 0 mm 3 mps 749 mmHg 72%
10:00 +13°C° 0 mm 3 mps 749 mmHg 71%
11:00 +13°C° 0 mm 3 mps 749 mmHg 70%
12:00 +16°C° 0 mm 3 mps 749 mmHg 66%
13:00 +17°C° 0 mm 3 mps 749 mmHg 61%
14:00 +19°C° 0 mm 3 mps 749 mmHg 57%
15:00 +18°C° 0 mm 3 mps 748 mmHg 61%
16:00 +17°C° 0 mm 3 mps 748 mmHg 65%
17:00 +16°C° 0 mm 3 mps 748 mmHg 70%
18:00 +14°C° 0 mm 3 mps 748 mmHg 76%
19:00 +13°C° 0 mm 3 mps 748 mmHg 82%
20:00 +12°C° 0 mm 3 mps 748 mmHg 87%
21:00 +12°C° 0 mm 3 mps 748 mmHg 90%
22:00 +11°C° 0 mm 3 mps 748 mmHg 93%
23:00 +11°C° 0 mm 3 mps 748 mmHg 95%

30 September, Wednesday

Time Temperature Precipitation Wind Pressure Humidity
00:00 +11°C° 0 mm 3 mps 748 mmHg 95%
01:00 +11°C° 0 mm 3 mps 747 mmHg 95%
02:00 +11°C° 0 mm 3 mps 747 mmHg 95%
03:00 +10°C° 0 mm 3 mps 747 mmHg 95%
04:00 +10°C° 0 mm 3 mps 747 mmHg 95%
05:00 +10°C° 0 mm 3 mps 747 mmHg 95%
06:00 +10°C° 0 mm 3 mps 747 mmHg 91%
07:00 +11°C° 0 mm 4 mps 747 mmHg 87%
08:00 +11°C° 0 mm 4 mps 747 mmHg 83%
09:00 +13°C° 0 mm 4 mps 747 mmHg 77%
10:00 +14°C° 0 mm 4 mps 747 mmHg 71%
11:00 +15°C° 0 mm 4 mps 747 mmHg 65%
12:00 +16°C° 0 mm 5 mps 746 mmHg 64%
13:00 +16°C° 0 mm 5 mps 746 mmHg 63%
14:00 +17°C° 0 mm 5 mps 746 mmHg 62%
15:00 +16°C° 0 mm 5 mps 746 mmHg 63%
16:00 +15°C° 0 mm 5 mps 746 mmHg 65%
17:00 +14°C° 0 mm 4 mps 746 mmHg 66%
18:00 +13°C° 0 mm 4 mps 746 mmHg 65%
19:00 +13°C° 0 mm 4 mps 746 mmHg 65%
20:00 +13°C° 0 mm 4 mps 746 mmHg 64%
21:00 +12°C° 0 mm 4 mps 746 mmHg 65%
22:00 +11°C° 0 mm 4 mps 746 mmHg 66%
23:00 +11°C° 0 mm 4 mps 746 mmHg 67%

1 October, Thursday

Time Temperature Precipitation Wind Pressure Humidity
00:00 +10°C° 0 mm 4 mps 745 mmHg 68%
01:00 +10°C° 0 mm 4 mps 745 mmHg 69%
02:00 +10°C° 0 mm 4 mps 745 mmHg 69%
03:00 +8°C° 0 mm 4 mps 745 mmHg 69%
04:00 +8°C° 0 mm 4 mps 745 mmHg 68%
05:00 +7°C° 0 mm 4 mps 745 mmHg 67%
06:00 +8°C° 0 mm 4 mps 745 mmHg 66%
07:00 +8°C° 0 mm 4 mps 745 mmHg 64%
08:00 +9°C° 0 mm 5 mps 745 mmHg 63%
09:00 +10°C° 0 mm 5 mps 745 mmHg 60%
10:00 +12°C° 0 mm 5 mps 745 mmHg 58%
11:00 +14°C° 0 mm 5 mps 745 mmHg 55%
12:00 +14°C° 0 mm 6 mps 745 mmHg 54%
13:00 +15°C° 0 mm 6 mps 745 mmHg 54%
14:00 +16°C° 0 mm 6 mps 744 mmHg 53%
15:00 +15°C° 0 mm 6 mps 744 mmHg 55%
16:00 +14°C° 0 mm 5 mps 744 mmHg 58%
17:00 +13°C° 0 mm 5 mps 744 mmHg 60%
18:00 +13°C° 0 mm 5 mps 744 mmHg 66%
19:00 +11°C° 0 mm 6 mps 744 mmHg 71%
20:00 +10°C° 0 mm 6 mps 744 mmHg 76%
21:00 +10°C° 0 mm 6 mps 744 mmHg 78%
22:00 +10°C° 0 mm 5 mps 744 mmHg 80%
23:00 +10°C° 0 mm 5 mps 744 mmHg 82%
Show more